sat.trackr.live / text

‹ back to catalog

STARLINK-2703

NORAD 48452 · 2021-040AA

PAYLOAD ACTIVE UNKNOWN

§ Identity

Operator
Country
US
Launch date
2021-05-09
Launch site
AFETR
Launch vehicle
Mass (kg)
RCS (m²)

Purposes: comms

External: N2YO · Heavens-Above · Gunter

§ Orbital elements

Epoch: 2026-09-09T03:24:51.955200Z

Period
94.01 min
Inclination
53.1614°
Eccentricity
0.0001146
Mean motion
15.31700487 rev/d
Perigee alt
470.0 km
Apogee alt
471.5 km
Semi-major
6,848.9 km
B*
1.5115e-4
RAAN
44.3916°
Arg perigee
84.0776°
Mean anomaly
276.0356°
Rev number
29,479

§ Raw data

STARLINK-27031 48452U 21040AA  26252.14226800  .00004328  00000+0  15115-3 0  99922 48452  53.1614  44.3916 0001146  84.0776 276.0356 15.31700487294792

JSON: /api/v1/satellites/48452 · /tle

For live sub-satellite position, see the globe view (requires WebGL).

§ Visibility from observer

Set your observer location to see the next 7 days of passes ≥ 10°. The values pass through the URL so the page stays shareable.

No JS? Fill the form by hand. The geolocation button needs JavaScript.